Change the Weather History Date:

Friday, August 1, 2014

  Actual Average Record
Temperature  
Mean Temperature 69 °F -  
Max Temperature 82 °F 79 °F 96 °F (2006)
Min Temperature 57 °F 57 °F 46 °F (1998)
Cooling Degree Days 4    
Growing Degree Days 19 (Base 50)    
Moisture  
Dew Point 62 °F    
Average Humidity 80    
Maximum Humidity 100    
Minimum Humidity 54    
Precipitation  
Precipitation 0.01 in - - ()
Sea Level Pressure  
Sea Level Pressure 30.20 in    
Wind  
Wind Speed 2 mph (South)    
Max Wind Speed 15 mph    
Max Gust Speed 22 mph    
Visibility 8 miles    
Events Thunderstorm    
Averages and records for this station are not official NWS values.
T = Trace of Precipitation, MM = Missing Value Source: NWS Daily Summary

Daily Weather History Graph

Daily Weather History Graph

Search for Another Location

Airport or City:

Trip Planner

Search our weather history database for the weather conditions in past years. The results will help you decide how hot, cold, wet, or windy it might be!

Date:

Astronomy

Aug. 01, 2014 Rise Set
Actual Time 5:41 AM EDT 8:09 PM EDT
Civil Twilight 5:09 AM EDT 8:41 PM EDT
Nautical Twilight 4:29 AM EDT 9:20 PM EDT
Astronomical Twilight 3:44 AM EDT 10:04 PM EDT
Moon 11:10 AM EDT (8/1) 10:43 PM EDT (8/1)
Length of Visible Light 15h 31m
Length of Day
14h 28m
Waxing Crescent, 27% of the Moon is Illuminated
Aug 1
Waxing Crescent
Aug 3
First Quarter
Aug 10
Full
Aug 17
Last Quarter
Aug 25
New

Hourly Weather History & Observations

Time (EDT) Temp. Heat Index Dew Point Humidity Pressure Visibility Wind Dir Wind Speed Gust Speed Precip Events Conditions
12:00 AM 61.0 °F - 60.1 °F 97% 30.17 in 2.5 mi Calm Calm - N/A   Clear
1:40 AM 59.0 °F - 57.9 °F 96% 30.17 in 1.2 mi Calm Calm - N/A   Clear
1:44 AM 59.0 °F - 57.9 °F 96% 30.17 in 0.8 mi Calm Calm - N/A   Clear
1:48 AM 59.0 °F - 57.2 °F 94% 30.17 in 1.2 mi Calm Calm - N/A   Clear
1:50 AM 59.0 °F - 57.2 °F 94% 30.17 in 2.0 mi Calm Calm - N/A   Clear
1:52 AM 59.0 °F - 57.9 °F 96% 30.17 in 2.5 mi Calm Calm - N/A   Clear
2:23 AM 57.9 °F - 57.9 °F 100% 30.18 in 4.0 mi Calm Calm - N/A   Clear
2:52 AM 59.0 °F - 57.9 °F 96% 30.17 in 7.0 mi Calm Calm - N/A   Mostly Cloudy
3:14 AM 59.0 °F - 57.9 °F 96% 30.18 in 8.0 mi Calm Calm - N/A   Overcast
3:52 AM 60.1 °F - 57.9 °F 93% 30.19 in 9.0 mi Calm Calm - N/A   Overcast
4:52 AM 60.1 °F - 59.0 °F 96% 30.18 in 9.0 mi Calm Calm - N/A   Overcast
5:52 AM 61.0 °F - 60.1 °F 97% 30.19 in 8.0 mi Calm Calm - N/A   Overcast
6:52 AM 62.1 °F - 60.1 °F 93% 30.20 in 7.0 mi Calm Calm - N/A   Overcast
8:12 AM 69.1 °F - 64.0 °F 84% 30.22 in 10.0 mi SSW 3.5 mph - N/A   Mostly Cloudy
8:19 AM 70.0 °F - 64.0 °F 81% 30.22 in 10.0 mi South 4.6 mph - N/A   Scattered Clouds
8:52 AM 71.1 °F - 64.0 °F 78% 30.22 in 10.0 mi South 10.4 mph - N/A   Partly Cloudy
9:52 AM 73.9 °F - 64.0 °F 71% 30.22 in 10.0 mi WSW 3.5 mph - N/A   Partly Cloudy
10:52 AM 77.0 °F - 64.0 °F 64% 30.21 in 10.0 mi SSE 4.6 mph - N/A   Clear
11:52 AM 80.1 °F 81.7 °F 64.0 °F 58% 30.21 in 10.0 mi South 9.2 mph - N/A   Mostly Cloudy
12:52 PM 81.0 °F 82.2 °F 63.0 °F 54% 30.20 in 10.0 mi South 9.2 mph - N/A   Mostly Cloudy
1:52 PM 79.0 °F - 64.0 °F 60% 30.19 in 10.0 mi South 8.1 mph - N/A   Overcast
2:02 PM 81.0 °F 82.5 °F 64.0 °F 56% 30.20 in 10.0 mi SSW 9.2 mph - N/A Thunderstorm Mostly Cloudy
2:35 PM 73.9 °F - 61.0 °F 64% 30.21 in 10.0 mi ENE 9.2 mph - N/A   Overcast
2:52 PM 73.9 °F - 61.0 °F 64% 30.21 in 10.0 mi NE 5.8 mph - N/A   Overcast
3:52 PM 77.0 °F - 64.0 °F 64% 30.19 in 10.0 mi Calm Calm - 0.01 in   Clear
4:52 PM 81.0 °F 82.2 °F 63.0 °F 54% 30.17 in 10.0 mi Calm Calm - N/A   Clear
5:52 PM 79.0 °F - 66.0 °F 64% 30.18 in 10.0 mi South 8.1 mph - N/A   Mostly Cloudy
6:52 PM 75.9 °F - 64.0 °F 67% 30.20 in 10.0 mi South 15.0 mph 21.9 mph N/A   Scattered Clouds
7:52 PM 73.9 °F - 66.0 °F 76% 30.21 in 10.0 mi South 8.1 mph - N/A   Partly Cloudy
8:35 PM 73.0 °F - 66.9 °F 81% 30.22 in 10.0 mi SSW 4.6 mph - N/A   Mostly Cloudy
8:52 PM 72.0 °F - 66.9 °F 84% 30.22 in 10.0 mi SSW 4.6 mph - N/A   Overcast
9:24 PM 72.0 °F - 66.0 °F 81% 30.22 in 10.0 mi SW 6.9 mph - N/A   Mostly Cloudy
10:52 PM 69.1 °F - 64.0 °F 84% 30.23 in 10.0 mi SSW 3.5 mph - N/A   Mostly Cloudy
11:52 PM 68.0 °F - 64.9 °F 90% 30.23 in 10.0 mi Calm Calm - N/A   Overcast